Location: Middlebury
(44.0153°N, 73.1678°W)
Time: 19:38:28
(UTC-04:00)

DIWATA 2B (PO-101) - Pass Details

Date: 26 June 2024
Orbit: 575 x 586 km, 98.1° (Epoch: 23 July)

Event Time Altitude Azimuth Distance (km) Brightness Sun altitude
Rises 03:30:17 0° 135° (SE) 2,778 ? -13.9°
Reaches altitude 10° 03:32:42 10° 122° (ESE) 1,885 ? -13.7°
Maximum altitude 03:36:02 25° 67° (ENE) 1,196 ? -13.3°
Drops below altitude 10° 03:39:23 10° 12° (NNE) 1,902 ? -12.9°
Sets 03:41:49 0° 359° (N) 2,808 ? -12.6°
